Weather History for PAWM - March, 2014

Change the Weather History Date:

Friday, March 14, 2014

  Actual Average (PAKK) Record (PAKK)
Temperature  
Mean Temperature 13 °F -  
Max Temperature 18 °F 18 °F 35 °F (2005)
Min Temperature 8 °F 5 °F -23 °F (2015)
Degree Days  
Heating Degree Days 52    
Moisture  
Dew Point 9 °F    
Average Humidity 84    
Maximum Humidity 92    
Minimum Humidity 73    
Precipitation  
Precipitation 0.10 in - - ()
Sea Level Pressure  
Sea Level Pressure 29.18 in    
Wind  
Wind Speed 6 mph (North)    
Max Wind Speed 12 mph    
Max Gust Speed -    
Visibility 2 miles    
Events Snow    
Averages and records for this station are not official NWS values.
T = Trace of Precipitation, MM = Missing Value Source: NWS Daily Summary

Daily Weather History Graph

Daily Weather History Graph

Search for Another Location

Airport or City:

Trip Planner

Search our weather history database for the weather conditions in past years. The results will help you decide how hot, cold, wet, or windy it might be!

Date:

Astronomy

Mar. 14, 2014 Rise Set
Actual Time 9:14 AM AKDT 8:52 PM AKDT
Civil Twilight 8:26 AM AKDT 9:40 PM AKDT
Nautical Twilight 7:28 AM AKDT 10:38 PM AKDT
Astronomical Twilight 6:25 AM AKDT 11:43 PM AKDT
Moon 7:05 PM AKDT (3/14) 8:29 AM AKDT (3/14)
Length of Visible Light 13h 13m
Length of Day
11h 37m
Waxing Gibbous, 97% of the Moon is Illuminated
Mar 14
Waxing Gibbous
Mar 16
Full
Mar 23
Last Quarter
Mar 30
New
Apr 7
First Quarter

Hourly Weather History & Observations

Time (AKDT) Temp. Windchill Dew Point Humidity Pressure Visibility Wind Dir Wind Speed Gust Speed Precip Events Conditions
12:09 AM 10.4 °F -4.1 °F 8.6 °F 92% 29.13 in 2.0 mi North 11.5 mph - 0.00 in Snow Light Snow
12:23 AM 10.4 °F -4.1 °F 8.6 °F 92% 29.13 in 3.0 mi North 11.5 mph - 0.00 in Snow Light Snow
12:31 AM 10.4 °F -4.1 °F 8.6 °F 92% 29.13 in 2.5 mi NNW 11.5 mph - 0.00 in Snow Light Snow
12:41 AM 10.4 °F -2.4 °F 8.6 °F 92% 29.14 in 1.5 mi North 9.2 mph - 0.00 in Snow Light Snow
12:49 AM 10.4 °F -4.1 °F 8.6 °F 92% 29.13 in 1.8 mi North 11.5 mph - 0.00 in Snow Light Snow
12:53 AM 10.4 °F -2.4 °F 8.6 °F 92% 29.13 in 2.5 mi North 9.2 mph - 0.00 in Snow Light Snow
12:58 AM 10.9 °F -2.6 °F 8.1 °F 88% 29.17 in 3.0 mi North 10.4 mph - 0.00 in Snow Light Snow
1:03 AM 10.4 °F -1.5 °F 8.6 °F 92% 29.13 in 2.5 mi North 8.1 mph - 0.00 in Snow Light Snow
1:47 AM 10.4 °F -1.5 °F 8.6 °F 92% 29.13 in 3.0 mi North 8.1 mph - 0.00 in Snow Light Snow
1:58 AM 10.0 °F -3.7 °F 7.0 °F 87% 29.17 in 5.0 mi North 10.4 mph - 0.00 in Snow Light Snow
2:07 AM 10.4 °F -2.4 °F 6.8 °F 85% 29.13 in 4.0 mi North 9.2 mph - 0.00 in Snow Light Snow
2:58 AM 10.0 °F -2.9 °F 7.0 °F 87% 29.14 in 10.0 mi North 9.2 mph - 0.00 in   Overcast
3:58 AM 9.0 °F -4.2 °F 6.1 °F 88% 29.14 in 6.0 mi North 9.2 mph - 0.00 in Snow Light Snow
4:58 AM 9.0 °F -3.2 °F 5.0 °F 84% 29.15 in 8.0 mi NNW 8.1 mph - 0.00 in   Overcast
5:58 AM 9.0 °F -2.2 °F 5.0 °F 84% 29.16 in 7.0 mi North 6.9 mph - 0.00 in Snow Light Snow
6:11 AM 8.6 °F -1.3 °F 5.0 °F 85% 29.12 in 3.0 mi NW 5.8 mph - 0.00 in Snow Light Snow
6:16 AM 8.6 °F 0.1 °F 5.0 °F 85% 29.12 in 2.5 mi NNW 4.6 mph - 0.00 in Snow Light Snow
6:24 AM 8.6 °F -2.6 °F 5.0 °F 85% 29.12 in 3.0 mi NNW 6.9 mph - 0.00 in Snow Light Snow
6:50 AM 8.6 °F -1.3 °F 5.0 °F 85% 29.12 in 2.0 mi North 5.8 mph - 0.00 in Snow Light Snow
6:58 AM 9.0 °F -0.9 °F 5.0 °F 84% 29.16 in 1.8 mi North 5.8 mph - 0.00 in Snow Light Snow
7:02 AM 8.6 °F -1.3 °F 5.0 °F 85% 29.12 in 2.0 mi North 5.8 mph - 0.00 in Snow Light Snow
7:09 AM 8.6 °F 2.0 °F 6.8 °F 92% 29.13 in 2.5 mi North 3.5 mph - 0.00 in Snow Light Snow
7:20 AM 8.6 °F 2.0 °F 6.8 °F 92% 29.13 in 4.0 mi NNE 3.5 mph - 0.00 in Snow Light Snow
7:31 AM 8.6 °F 0.1 °F 6.8 °F 92% 29.13 in 2.0 mi North 4.6 mph - 0.00 in Snow Light Snow
7:58 AM 9.0 °F 0.6 °F 6.1 °F 88% 29.17 in 2.5 mi North 4.6 mph - 0.00 in Snow Light Snow
8:09 AM 8.6 °F - 6.8 °F 92% 29.14 in 3.0 mi Calm Calm - 0.00 in Snow Light Snow
8:58 AM 9.0 °F 2.4 °F 6.1 °F 88% 29.17 in 6.0 mi North 3.5 mph - 0.00 in Snow Light Snow
9:15 AM 10.4 °F - 6.8 °F 85% 29.14 in 6.0 mi Calm Calm - 0.00 in Snow Light Snow
9:58 AM 10.0 °F 1.8 °F 6.1 °F 84% 29.19 in 8.0 mi North 4.6 mph - 0.00 in   Overcast
10:08 AM 10.4 °F 4.0 °F 6.8 °F 85% 29.15 in 8.0 mi North 3.5 mph - N/A   Overcast
10:58 AM 10.0 °F 1.8 °F 6.1 °F 84% 29.20 in 8.0 mi North 4.6 mph - N/A   Overcast
11:05 AM 10.4 °F 4.0 °F 6.8 °F 85% 29.16 in 8.0 mi North 3.5 mph - N/A   Overcast
11:58 AM 12.0 °F 4.1 °F 7.0 °F 80% 29.20 in 7.0 mi NNW 4.6 mph - 0.00 in Snow Light Snow
12:20 PM 12.2 °F 4.3 °F 6.8 °F 79% 29.17 in 2.0 mi NNW 4.6 mph - 0.00 in Snow Light Snow
12:23 PM 12.2 °F 6.1 °F 6.8 °F 79% 29.17 in 1.8 mi NNW 3.5 mph - 0.00 in Snow Light Snow
12:35 PM 12.2 °F 2.9 °F 8.6 °F 85% 29.17 in 2.0 mi North 5.8 mph - 0.00 in Snow Light Snow
12:45 PM 12.2 °F 2.9 °F 8.6 °F 85% 29.17 in 3.0 mi North 5.8 mph - 0.00 in Snow Light Snow
12:58 PM 14.0 °F - 8.1 °F 77% 29.22 in 5.0 mi Calm Calm - 0.00 in Snow Light Snow
1:24 PM 15.8 °F 10.2 °F 8.6 °F 73% 29.18 in 2.5 mi NW 3.5 mph - 0.00 in Snow Light Snow
1:56 PM 15.8 °F 7.2 °F 8.6 °F 73% 29.18 in 1.5 mi NNW 5.8 mph - 0.00 in Snow Light Snow
1:58 PM 15.1 °F 7.7 °F 9.0 °F 77% 29.21 in 1.5 mi NNW 4.6 mph - 0.00 in Snow Light Snow
2:58 PM 17.1 °F 10.0 °F 10.9 °F 77% 29.21 in 1.5 mi NNW 4.6 mph - 0.00 in Snow Light Snow
3:05 PM 17.6 °F 10.7 °F 10.4 °F 73% 29.18 in 2.0 mi NNW 4.6 mph - 0.00 in Snow Light Snow
3:20 PM 17.6 °F 10.7 °F 10.4 °F 73% 29.17 in 1.5 mi NNW 4.6 mph - 0.00 in Snow Light Snow
3:38 PM 17.6 °F - 12.2 °F 79% 29.18 in 1.5 mi Calm Calm - 0.01 in Snow Light Snow
3:42 PM 17.6 °F - 12.2 °F 79% 29.18 in 1.2 mi Calm Calm - 0.01 in Snow Light Snow
3:51 PM 17.6 °F 12.3 °F 12.2 °F 79% 29.18 in 1.2 mi Variable 3.5 mph - 0.01 in Snow Light Snow
3:56 PM 17.6 °F 12.3 °F 12.2 °F 79% 29.18 in 1.2 mi SSE 3.5 mph - 0.01 in Snow Light Snow
3:58 PM 18.0 °F - 12.0 °F 78% 29.22 in 1.0 mi Calm Calm - 0.01 in Snow Light Snow
4:08 PM 17.6 °F 10.7 °F 10.4 °F 73% 29.18 in 0.8 mi SSE 4.6 mph - 0.00 in Snow Light Snow
4:18 PM 15.8 °F 8.6 °F 10.4 °F 79% 29.18 in 0.8 mi South 4.6 mph - 0.00 in Snow Light Snow
4:23 PM 15.8 °F 10.2 °F 10.4 °F 79% 29.18 in 1.0 mi SSE 3.5 mph - 0.00 in Snow Light Snow
4:29 PM 15.8 °F 10.2 °F 10.4 °F 79% 29.18 in 1.2 mi SSE 3.5 mph - 0.00 in Snow Light Snow
4:33 PM 15.8 °F 10.2 °F 10.4 °F 79% 29.18 in 1.2 mi South 3.5 mph - 0.00 in Snow Light Snow
4:43 PM 15.8 °F 8.6 °F 10.4 °F 79% 29.18 in 2.0 mi South 4.6 mph - 0.00 in Snow Light Snow
4:49 PM 15.8 °F 10.2 °F 10.4 °F 79% 29.18 in 3.0 mi South 3.5 mph - 0.00 in Snow Light Snow
4:56 PM 15.8 °F 10.2 °F 10.4 °F 79% 29.19 in 2.5 mi South 3.5 mph - 0.00 in Snow Light Snow
4:58 PM 15.1 °F 9.4 °F 10.9 °F 84% 29.22 in 2.0 mi South 3.5 mph - 0.00 in Snow Light Snow
5:02 PM 15.8 °F 10.2 °F 10.4 °F 79% 29.19 in 1.5 mi South 3.5 mph - 0.00 in Snow Light Snow
5:06 PM 15.8 °F 10.2 °F 10.4 °F 79% 29.18 in 1.0 mi SSW 3.5 mph - 0.00 in Snow Light Snow
5:14 PM 15.8 °F - 10.4 °F 79% 29.18 in 0.8 mi Calm Calm - 0.00 in Snow Light Snow
5:31 PM 15.8 °F - 12.2 °F 86% 29.18 in 1.0 mi Calm Calm - 0.01 in Snow Light Snow
5:38 PM 15.8 °F 10.2 °F 12.2 °F 86% 29.19 in 0.8 mi South 3.5 mph - 0.01 in Snow Light Snow
5:54 PM 15.8 °F 7.2 °F 10.4 °F 79% 29.19 in 1.0 mi SSE 5.8 mph - 0.02 in Snow Light Snow
5:58 PM 14.0 °F 5.1 °F 10.9 °F 88% 29.23 in 1.0 mi SSE 5.8 mph - 0.02 in Snow Light Snow
6:06 PM 14.0 °F 5.1 °F 10.4 °F 86% 29.19 in 0.8 mi SSE 5.8 mph - 0.00 in Snow Light Snow
6:41 PM 14.0 °F 6.5 °F 10.4 °F 86% 29.20 in 1.0 mi SSE 4.6 mph - 0.01 in Snow Light Snow
6:47 PM 14.0 °F 6.5 °F 10.4 °F 86% 29.20 in 1.0 mi SSE 4.6 mph - 0.01 in Snow Light Snow
6:57 PM 14.0 °F 8.2 °F 10.9 °F 88% 29.23 in 0.8 mi South 3.5 mph - 0.01 in Snow Light Snow
7:20 PM 14.0 °F - 10.4 °F 86% 29.19 in 1.0 mi Calm Calm - 0.01 in Snow Light Snow
7:37 PM 14.0 °F - 10.4 °F 86% 29.20 in 1.2 mi Calm Calm - 0.02 in Snow Light Snow
7:45 PM 14.0 °F - 10.4 °F 86% 29.20 in 1.0 mi Calm Calm - 0.02 in Snow Light Snow
7:58 PM 14.0 °F - 10.9 °F 88% 29.23 in 1.0 mi Calm Calm - 0.03 in Snow Light Snow
8:03 PM 14.0 °F - 10.4 °F 86% 29.20 in 0.8 mi Calm Calm - 0.00 in Snow Light Snow
8:08 PM 14.0 °F - 10.4 °F 86% 29.20 in 1.0 mi Calm Calm - 0.00 in Snow Light Snow
8:11 PM 14.0 °F - 10.4 °F 86% 29.20 in 1.5 mi Calm Calm - 0.00 in Snow Light Snow
8:17 PM 14.0 °F - 10.4 °F 86% 29.20 in 2.0 mi Calm Calm - 0.00 in Snow Light Snow
8:21 PM 14.0 °F - 10.4 °F 86% 29.20 in 1.5 mi Calm Calm - 0.00 in Snow Light Snow
8:27 PM 14.0 °F 8.2 °F 10.4 °F 86% 29.20 in 1.0 mi NNW 3.5 mph - 0.00 in Snow Light Snow
8:31 PM 14.0 °F - 10.4 °F 86% 29.20 in 0.8 mi Calm Calm - 0.00 in Snow Light Snow
8:58 PM 12.9 °F - 10.0 °F 88% 29.24 in 0.8 mi Calm Calm - 0.00 in Snow Light Snow
9:29 PM 12.2 °F 6.1 °F 8.6 °F 85% 29.22 in 1.0 mi East 3.5 mph - 0.00 in Snow Light Snow
9:33 PM 12.2 °F 6.1 °F 8.6 °F 85% 29.22 in 1.5 mi East 3.5 mph - 0.00 in Snow Light Snow
9:58 PM 12.0 °F 4.1 °F 9.0 °F 88% 29.26 in 2.0 mi ESE 4.6 mph - 0.01 in Snow Light Snow
10:05 PM 12.2 °F 4.3 °F 8.6 °F 85% 29.23 in 1.8 mi ESE 4.6 mph - 0.00 in Snow Light Snow
10:23 PM 12.2 °F 6.1 °F 8.6 °F 85% 29.23 in 2.0 mi ESE 3.5 mph - 0.00 in Snow Light Snow
10:35 PM 12.2 °F 6.1 °F 8.6 °F 85% 29.24 in 1.8 mi East 3.5 mph - 0.00 in Snow Light Snow
10:58 PM 12.0 °F - 9.0 °F 88% 29.28 in 1.8 mi Calm Calm - 0.00 in Snow Light Snow
11:08 PM 12.2 °F - 8.6 °F 85% 29.24 in 2.0 mi Calm Calm - 0.01 in Snow Light Snow
11:29 PM 12.2 °F - 8.6 °F 85% 29.25 in 2.5 mi Calm Calm - 0.01 in Snow Light Snow
11:51 PM 10.4 °F - 8.6 °F 92% 29.26 in 1.8 mi Calm Calm - 0.02 in Snow Light Snow
11:58 PM 10.9 °F - 8.1 °F 88% 29.30 in 1.5 mi Calm Calm - 0.02 in Snow Light Snow